KC3ULW-13 Weather Reports


time (UTC)temp
C
wind
direction
speed
KPH
gust
KPH
rain 1hr
cm
rain 24hr
cm
rain mn
cm
humidity
%
barometer
mb
20260503173806 13 211 4.8 8.0 0.00 0.00 0.00 42 1018.6
20260503173301 13 253 4.8 8.0 0.00 0.00 0.00 38 1018.9
20260503172758 13 269 17.7 24.1 0.00 0.00 0.00 39 1018.6
20260503172256 13 295 8.0 9.7 0.00 0.00 0.00 38 1018.9
20260503171752 14 170 6.4 8.0 0.00 0.00 0.00 38 1018.9
20260503171249 13 217 3.2 4.8 0.00 0.00 0.00 39 1019.1
20260503170746 13 201 1.6 1.6 0.00 0.00 0.00 40 1019.3
20260503170243 13 264 4.8 4.8 0.00 0.00 0.00 39 1019.1
20260503160205 12 302 4.8 4.8 0.00 0.00 0.00 39 1019.8
20260503150629 10 249 8.0 9.7 0.00 0.00 0.00 43 1020.5
20260503150125 10 326 8.0 9.7 0.00 0.00 0.00 42 1020.2
20260503131019 7 287 4.8 4.8 0.00 0.00 0.00 63 1020.5
20260503130516 7 190 1.6 1.6 0.00 0.00 0.00 65 1020.6
20260503110413 0 175 0.0 0.0 0.00 0.00 0.00 90 1019.5
20260503090303 0 175 0.0 0.0 0.00 0.00 0.00 88 1018.9
20260503081237 1 175 0.0 0.0 0.00 0.00 0.00 87 1018.9
20260503080732 1 175 0.0 0.0 0.00 0.00 0.00 87 1018.9
20260503080230 1 178 0.0 0.0 0.00 0.00 0.00 87 1018.8
20260503072706 1 175 0.0 0.0 0.00 0.00 0.00 87 1019.1
20260503072203 1 175 0.0 0.0 0.00 0.00 0.00 87 1018.8
20260503071700 1 167 0.0 0.0 0.00 0.00 0.00 88 1018.8
20260503071156 1 162 0.0 1.6 0.00 0.00 0.00 88 1018.8
20260503070653 1 164 0.0 0.0 0.00 0.00 0.00 88 1018.7
20260503070152 1 175 0.0 0.0 0.00 0.00 0.00 88 1018.7
20260503060115 1 175 0.0 0.0 0.00 0.00 0.00 87 1018.9
20260503055107 1 175 0.0 0.0 0.00 0.00 0.00 87 1018.7
20260503054603 1 175 0.0 0.0 0.00 0.00 0.00 87 1018.8
20260503054100 1 175 0.0 1.6 0.00 0.00 0.00 87 1018.8
20260503053558 1 175 0.0 0.0 0.00 0.00 0.00 87 1019.1
20260503053056 1 175 0.0 0.0 0.00 0.00 0.00 87 1019.1
20260503052552 1 170 0.0 0.0 0.00 0.00 0.00 87 1018.8
20260503052049 1 167 0.0 0.0 0.00 0.00 0.00 87 1018.9
20260503051544 1 167 0.0 0.0 0.00 0.00 0.00 87 1019.2
20260503051042 1 165 0.0 0.0 0.00 0.00 0.00 86 1019.1
20260503050538 1 162 0.0 0.0 0.00 0.00 0.00 86 1018.9
20260503050035 1 174 0.0 0.0 0.00 0.00 0.00 86 1019.2
20260503045532 1 167 0.0 1.6 0.00 0.00 0.00 86 1019.2
20260503045030 1 166 0.0 1.6 0.00 0.00 0.00 86 1019.1
20260503044526 1 168 0.0 0.0 0.00 0.00 0.00 86 1019.1
20260503044024 1 154 1.6 1.6 0.00 0.00 0.00 85 1019.3
20260503043520 2 167 0.0 0.0 0.00 0.00 0.00 85 1019.1
20260503043017 2 173 0.0 0.0 0.00 0.00 0.00 85 1019.1
20260503042514 2 168 0.0 0.0 0.00 0.00 0.00 85 1019.2
20260503042009 2 158 1.6 1.6 0.00 0.00 0.00 84 1019.2
20260503041507 2 159 0.0 0.0 0.00 0.00 0.00 84 1019.1
20260503041004 2 163 0.0 0.0 0.00 0.00 0.00 84 1019.1
20260503040502 2 161 0.0 0.0 0.00 0.00 0.00 84 1019.2
20260503035958 2 170 0.0 0.0 0.00 0.00 0.00 83 1019.2
20260503035455 2 170 0.0 0.0 0.00 0.00 0.00 83 1019.4
20260503034953 2 170 0.0 0.0 0.00 0.00 0.00 83 1019.2
20260503034450 2 170 0.0 0.0 0.00 0.00 0.00 82 1019.2
20260503033947 2 159 1.6 1.6 0.00 0.00 0.00 83 1019.1
20260503033444 2 159 0.0 0.0 0.00 0.00 0.00 82 1019.2
20260503032943 2 159 0.0 1.6 0.00 0.00 0.00 82 1019.1
20260503032441 3 159 0.0 0.0 0.00 0.00 0.00 81 1018.9
20260503031938 3 159 1.6 1.6 0.00 0.00 0.00 80 1019.2
20260503031436 3 159 1.6 1.6 0.00 0.00 0.00 79 1018.9
20260503030932 3 175 0.0 1.6 0.00 0.00 0.00 78 1018.9
20260503030428 4 181 0.0 0.0 0.00 0.00 0.00 77 1019.1
20260503025925 4 192 0.0 0.0 0.00 0.00 0.00 75 1019.2
20260503025422 4 196 0.0 0.0 0.00 0.00 0.00 75 1019.2
20260503024920 5 205 1.6 1.6 0.00 0.00 0.00 74 1019.3
20260503024417 5 188 0.0 1.6 0.00 0.00 0.00 73 1019.3
20260503023914 5 200 1.6 1.6 0.00 0.00 0.00 72 1019.2
20260503023411 5 196 0.0 0.0 0.00 0.00 0.00 72 1019.3
20260503022908 5 301 1.6 1.6 0.00 0.00 0.00 72 1019.5
20260503022408 5 204 1.6 1.6 0.00 0.00 0.00 71 1019.4
20260503021904 5 215 0.0 1.6 0.00 0.00 0.00 71 1019.3
20260503021400 5 197 0.0 1.6 0.00 0.00 0.00 70 1019.5
20260503020857 5 204 0.0 0.0 0.00 0.00 0.00 70 1019.3
20260503020355 5 229 1.6 1.6 0.00 0.00 0.00 70 1019.4
20260503015851 5 230 3.2 3.2 0.00 0.00 0.00 70 1019.2
20260503015348 5 221 1.6 1.6 0.00 0.00 0.00 71 1019.2
20260503014845 5 219 1.6 3.2 0.00 0.00 0.00 71 1019.1
20260503014343 5 206 1.6 1.6 0.00 0.00 0.00 70 1019.2
20260503013840 5 206 0.0 1.6 0.00 0.00 0.00 70 1019.3
20260503013337 5 203 0.0 1.6 0.00 0.00 0.00 70 1019.1
20260503012833 5 212 0.0 1.6 0.00 0.00 0.00 69 1019.3
20260503012331 5 214 1.6 3.2 0.00 0.00 0.00 70 1019.2
20260503011828 5 262 1.6 3.2 0.00 0.00 0.00 70 1019.3
20260503011325 5 222 1.6 1.6 0.00 0.00 0.00 69 1018.9
20260503010821 5 205 1.6 1.6 0.00 0.00 0.00 69 1019.2
20260503010319 5 313 3.2 3.2 0.00 0.00 0.00 69 1019.1
20260503005816 5 260 1.6 3.2 0.00 0.00 0.00 69 1018.9
20260503005313 5 200 0.0 1.6 0.00 0.00 0.00 69 1018.8
20260503004809 5 200 1.6 1.6 0.00 0.00 0.00 68 1019.1
20260503004306 5 127 0.0 0.0 0.00 0.00 0.00 68 1018.7
20260503003804 5 221 1.6 1.6 0.00 0.00 0.00 68 1018.8
20260503003300 5 216 1.6 1.6 0.00 0.00 0.00 67 1018.6
20260503002757 6 204 0.0 0.0 0.00 0.00 0.00 67 1018.6
20260503002254 6 10 1.6 3.2 0.00 0.00 0.00 66 1018.8
20260503001750 6 249 3.2 3.2 0.00 0.00 0.00 66 1018.6
20260503001247 6 194 0.0 1.6 0.00 0.00 0.00 66 1018.8
20260503000745 6 199 1.6 1.6 0.00 0.00 0.00 66 1018.6
20260503000242 6 305 1.6 3.2 0.00 0.00 0.00 65 1018.5
20260502235739 6 295 1.6 1.6 0.00 0.00 0.00 66 1018.4
20260502235237 6 166 1.6 3.2 0.00 0.00 0.00 66 1018.5
20260502234732 6 142 0.0 0.0 0.00 0.00 0.00 65 1018.3
20260502234230 6 310 4.8 4.8 0.00 0.00 0.00 65 1018.5
20260502233726 6 272 6.4 9.7 0.00 0.00 0.00 65 1018.4
20260502233223 6 333 4.8 8.0 0.00 0.00 0.00 65 1018.4
20260502232718 6 353 3.2 3.2 0.00 0.00 0.00 65 1018.4
20260502232216 6 21 3.2 4.8 0.00 0.00 0.00 64 1018.5
20260502231713 6 337 1.6 3.2 0.00 0.00 0.00 64 1018.2
20260502231210 6 31 4.8 8.0 0.00 0.00 0.00 64 1018.2
20260502230709 6 359 4.8 8.0 0.00 0.00 0.00 64 1018.1
20260502230207 6 351 6.4 8.0 0.00 0.00 0.00 64 1018.3
20260502225702 6 217 1.6 3.2 0.00 0.00 0.00 63 1018.2
20260502225200 6 358 1.6 3.2 0.00 0.00 0.00 67 1018.6
20260502224655 6 316 1.6 3.2 0.00 0.00 0.00 67 1018.4
20260502224153 6 128 3.2 3.2 0.00 0.00 0.00 67 1018.4
20260502223650 6 350 4.8 4.8 0.00 0.00 0.00 67 1018.2
20260502223148 6 309 1.6 3.2 0.00 0.00 0.00 67 1018.4
20260502222646 6 301 4.8 4.8 0.00 0.00 0.00 67 1018.4
20260502222142 6 313 4.8 4.8 0.00 0.00 0.00 68 1018.4
20260502221638 6 269 1.6 1.6 0.00 0.00 0.00 68 1018.4
20260502221135 6 34 4.8 8.0 0.00 0.00 0.00 68 1018.3
20260502220631 6 8 4.8 9.7 0.00 0.00 0.00 68 1018.2
20260502220127 6 320 6.4 9.7 0.00 0.00 0.00 68 1018.2
20260502215625 6 333 4.8 4.8 0.00 0.00 0.00 68 1018.1
20260502215122 6 308 4.8 8.0 0.00 0.00 0.00 67 1018.1
20260502214619 6 358 4.8 8.0 0.00 0.00 0.00 68 1018.1
20260502214116 6 337 3.2 4.8 0.00 0.00 0.00 68 1018.1
20260502213613 7 267 3.2 3.2 0.00 0.00 0.00 67 1018.0
20260502213110 7 36 4.8 8.0 0.00 0.00 0.00 68 1018.0
20260502212609 6 33 1.6 3.2 0.00 0.00 0.00 67 1017.9
20260502212107 7 244 9.7 14.5 0.00 0.00 0.00 65 1017.8
20260502211602 7 16 4.8 4.8 0.00 0.00 0.00 67 1017.6
20260502211059 7 22 8.0 9.7 0.00 0.00 0.00 66 1017.8
20260502210556 7 2 3.2 3.2 0.00 0.00 0.00 67 1018.0
20260502210054 7 243 3.2 4.8 0.00 0.00 0.00 66 1017.8
20260502205550 7 114 8.0 11.3 0.00 0.00 0.00 67 1017.8
20260502205047 7 329 1.6 3.2 0.00 0.00 0.00 67 1017.7
20260502204544 7 293 8.0 11.3 0.00 0.00 0.00 66 1017.7
20260502204042 7 337 8.0 9.7 0.00 0.00 0.00 67 1017.8
20260502203538 7 303 4.8 8.0 0.00 0.00 0.00 66 1018.0
20260502203036 7 311 4.8 4.8 0.00 0.00 0.00 65 1017.7
20260502202531 7 288 0.0 1.6 0.00 0.00 0.00 64 1018.0
20260502202030 7 357 8.0 11.3 0.00 0.00 0.00 64 1017.8
20260502201526 7 227 1.6 1.6 0.00 0.00 0.00 66 1017.8
20260502201022 7 318 4.8 4.8 0.00 0.00 0.00 66 1017.7
20260502200518 7 358 6.4 9.7 0.00 0.00 0.00 66 1017.9
20260502200016 7 13 4.8 8.0 0.00 0.00 0.00 67 1018.0
20260502195514 7 358 3.2 4.8 0.00 0.00 0.00 69 1017.7
20260502195009 6 334 1.6 3.2 0.00 0.00 0.00 70 1017.8
20260502194506 6 310 6.4 9.7 0.00 0.00 0.00 71 1018.0
20260502194002 6 0 6.4 9.7 0.00 0.00 0.00 71 1018.0
20260502193500 6 258 4.8 8.0 0.00 0.00 0.00 71 1018.0
20260502192955 6 1 6.4 8.0 0.00 0.00 0.00 70 1018.1
20260502192452 6 211 1.6 1.6 0.00 0.00 0.00 71 1018.1
20260502191949 6 358 3.2 4.8 0.00 0.00 0.00 71 1018.2
20260502191447 6 34 8.0 9.7 0.00 0.00 0.00 70 1018.1
20260502190944 7 305 4.8 4.8 0.00 0.00 0.00 69 1018.3
20260502190441 7 40 4.8 4.8 0.00 0.00 0.00 69 1018.1
20260502185938 7 233 3.2 4.8 0.00 0.00 0.00 69 1018.3
20260502185433 7 349 8.0 9.7 0.00 0.00 0.00 67 1018.4
20260502184931 7 358 8.0 11.3 0.00 0.00 0.00 68 1018.3
20260502184426 7 323 6.4 8.0 0.00 0.00 0.00 67 1018.4
20260502183922 7 337 4.8 4.8 0.00 0.00 0.00 67 1018.2
20260502183419 7 0 4.8 4.8 0.00 0.00 0.00 68 1018.4
20260502182914 8 321 8.0 9.7 0.00 0.00 0.00 68 1018.3
20260502182410 7 19 1.6 1.6 0.00 0.00 0.00 70 1018.4
20260502181906 7 17 4.8 4.8 0.00 0.00 0.00 70 1018.3
20260502181405 7 141 1.6 3.2 0.00 0.00 0.00 70 1018.4
20260502180903 7 347 6.4 8.0 0.00 0.00 0.00 69 1018.4
20260502180400 7 345 1.6 3.2 0.00 0.00 0.00 72 1018.3